ITY2010 LIRF-LIML

Flight info

Callsign ITY2010
Flight time N/A
Altitude 30000
Route GILIO DCT KARDU DCT EMBOS DCT GIPIX DCT KALMO
Aircraft A320/M-SDE2E3FGIJ1RWY/LB1

Departure

Time N/A
Airport Rome–Fiumicino Leonardo da Vinci International Airport (LIRF)

Arrival

Time 2026-05-01 07:29
Airport Milano Linate Airport (LIML)
Time Latitude Longitude Altitude Speed Heading
2026-05-01 07:23 45.19687 9.30374 4972 ft 197 kts 358°
2026-05-01 07:23 45.22407 9.30078 4173 ft 197 kts 359°
2026-05-01 07:24 45.23773 9.29931 3805 ft 197 kts 358°
2026-05-01 07:24 45.25144 9.29785 3422 ft 198 kts 358°
2026-05-01 07:24 45.26521 9.29639 3080 ft 200 kts 358°
2026-05-01 07:24 45.27876 9.29492 3065 ft 189 kts 359°
2026-05-01 07:25 45.29136 9.29356 3026 ft 175 kts 359°
2026-05-01 07:25 45.30319 9.29229 2928 ft 167 kts
2026-05-01 07:25 45.31472 9.29107 2751 ft 166 kts 360°
2026-05-01 07:25 45.32618 9.28985 2539 ft 164 kts 359°
2026-05-01 07:26 45.33757 9.28862 2307 ft 162 kts
2026-05-01 07:26 45.34870 9.28743 2100 ft 159 kts
2026-05-01 07:26 45.35943 9.28626 1902 ft 151 kts
2026-05-01 07:26 45.36975 9.28516 1692 ft 146 kts
2026-05-01 07:27 45.37977 9.28408 1496 ft 143 kts
2026-05-01 07:27 45.38957 9.28303 1291 ft 141 kts
2026-05-01 07:27 45.39935 9.28198 1079 ft 142 kts
2026-05-01 07:27 45.40923 9.28101 901 ft 142 kts 359°
2026-05-01 07:28 45.41908 9.27975 701 ft 142 kts 360°
2026-05-01 07:28 45.42900 9.27868 527 ft 143 kts 359°
2026-05-01 07:28 45.43881 9.27762 372 ft 140 kts 358°
2026-05-01 07:28 45.44724 9.27684 368 ft 98 kts 356°
2026-05-01 07:29 45.45205 9.27630 358 ft 34 kts 355°
2026-05-01 07:29 45.45364 9.27703 358 ft 18 kts 26°
2026-05-01 07:29 45.45443 9.27774 360 ft 13 kts 46°
2026-05-01 07:29 45.45523 9.27815 360 ft 12 kts
2026-05-01 07:30 45.45603 9.27816 360 ft 11 kts
2026-05-01 07:30 45.45676 9.27816 360 ft 11 kts
2026-05-01 07:30 45.45793 9.27818 362 ft 19 kts
2026-05-01 07:30 45.45896 9.27838 360 ft 13 kts 43°
2026-05-01 07:31 45.45937 9.27905 360 ft 8 kts
2026-05-01 07:31 45.45972 9.27903 360 ft 0 kts 359°
2026-05-01 07:32 45.45973 9.27903 360 ft 0 kts 359°